User: anonymous   Login
Location: Bittelbronn
(48.4454°N, 8.5870°E)
Time: 20:30:04
(UTC+00:00)
Language:

IRAS Rocket - Orbit

View from above orbital plane
View from above orbital plane
View from above satellite
View from above satellite

Ground track
Ground track

The orbit data is extracted from the following two-line orbital elements,

1 13778U 83004B   24197.60121001  .00000300  00000-0  20226-3 0  9993
2 13778 100.0580 155.8298 0021377  23.3949 336.8185 14.09377671130889
Epoch (UTC): 15 July 2024 14:25:44
Eccentricity: 0.0021377
inclination: 100.0580°
perigee height: 846 km
apogee height: 877 km
right ascension of ascending node: 155.8298°
argument of perigee: 23.3949°
revolutions per day: 14.09377671
mean anomaly at epoch: 336.8185°
orbit number at epoch: 13088

The dashed part of the orbit path shows where the satellite is in the earth's shadow,  

DLR